Location: Newark
(45.5000°N, 11.4167°E)
Time: 08:03:28
(UTC+00:00)

Transit 2A Rocket - Pass Details

Date: 02 September 2019
Orbit: 592 x 911 km, 66.7° (Epoch: 19 September)

Event Time Altitude Azimuth Distance (km) Brightness Sun altitude
Rises 00:38:59 0° 326° (NW) 2,985 8.4 -33.1°
Reaches altitude 10° 00:41:21 10° 326° (NW) 2,030 7.5 -33.0°
Enters shadow 00:41:37 12° 326° (NW) 1,924 7.4 -32.9°
Maximum altitude 00:45:54 84° 239° (WSW) 618 - -32.6°
Drops below altitude 10° 00:50:11 10° 151° (SSE) 1,924 - -32.3°
Sets 00:52:23 0° 151° (SSE) 2,815 - -32.1°
